Track YAOGAN 17B now! 10-day predictions YAOGAN 17B is classified as:
1 39240U 13046B 25173.61649820 -.00000095 00000-0 -45878-5 0 9999 2 39240 63.3916 297.9424 0394405 9.7989 351.0447 13.45414341579951